timestamp,wind_dir_avg,wind_spd_avg,wind_spd_max_dir,wind_spd_gust,battery_voltage,lat,long
2021-04-27 00:04:01+00:00,116.0,6.68,125.0,9.22,12.57,47.59359,-54.27349
2021-04-27 00:14:01+00:00,117.0,7.98,130.0,11.37,12.57,47.59359,-54.27349
2021-04-27 00:24:01+00:00,118.0,7.91,109.0,9.36,12.57,47.59359,-54.27349
2021-04-27 00:34:01+00:00,120.0,9.05,115.0,11.73,12.57,47.59359,-54.27349
2021-04-27 00:44:01+00:00,123.0,10.71,136.0,13.86,12.57,47.59359,-54.27349
2021-04-27 00:54:01+00:00,117.0,7.31,116.0,13.3,12.57,47.59359,-54.27349
2021-04-27 01:04:01+00:00,121.0,7.83,126.0,11.75,12.57,47.59359,-54.27349
2021-04-27 01:14:01+00:00,114.0,7.24,124.0,13.13,12.57,47.59359,-54.27349
2021-04-27 01:24:01+00:00,119.0,7.0,111.0,10.46,12.57,47.59359,-54.27349
2021-04-27 01:34:01+00:00,127.0,9.06,123.0,11.16,12.57,47.59359,-54.27349
2021-04-27 01:44:01+00:00,121.0,8.28,125.0,10.73,12.57,47.59359,-54.27349
2021-04-27 01:54:01+00:00,123.0,9.06,123.0,10.86,12.57,47.59359,-54.27349
2021-04-27 02:04:01+00:00,126.0,6.87,117.0,9.69,12.57,47.59359,-54.27349
2021-04-27 02:14:00+00:00,124.0,8.83,126.0,10.39,12.49,47.59359,-54.27349
2021-04-27 02:24:00+00:00,116.0,7.42,116.0,9.84,12.49,47.59359,-54.27349
2021-04-27 02:34:00+00:00,113.0,6.2,117.0,10.98,12.49,47.59359,-54.27349
2021-04-27 02:44:00+00:00,94.0,4.33,108.0,6.9,12.49,47.59359,-54.27349
2021-04-27 02:54:00+00:00,109.0,4.29,127.0,7.53,12.49,47.59359,-54.27349
2021-04-27 03:04:00+00:00,122.0,6.85,110.0,9.41,12.49,47.59359,-54.27349
2021-04-27 03:14:01+00:00,115.0,6.28,124.0,9.24,12.49,47.59359,-54.27349
2021-04-27 03:24:01+00:00,118.0,7.27,127.0,10.94,12.49,47.59359,-54.27349
2021-04-27 03:34:01+00:00,119.0,8.67,120.0,11.25,12.49,47.59359,-54.27349
2021-04-27 03:44:01+00:00,122.0,10.07,120.0,12.4,12.49,47.59359,-54.27349
2021-04-27 03:54:01+00:00,124.0,9.77,137.0,13.25,12.49,47.59359,-54.27349
2021-04-27 04:04:01+00:00,129.0,11.48,138.0,14.14,12.49,47.59359,-54.27349
2021-04-27 04:14:00+00:00,144.0,12.3,141.0,14.15,12.49,47.59359,-54.27349
2021-04-27 04:24:00+00:00,141.0,13.86,145.0,16.03,12.49,47.59359,-54.27349
2021-04-27 04:34:00+00:00,136.0,13.67,127.0,16.95,12.49,47.59359,-54.27349
2021-04-27 04:44:00+00:00,142.0,13.9,148.0,16.55,12.49,47.59359,-54.27349
2021-04-27 04:54:00+00:00,142.0,14.09,143.0,17.46,12.49,47.59359,-54.27349
2021-04-27 05:04:00+00:00,141.0,12.44,140.0,15.65,12.49,47.59359,-54.27349
2021-04-27 05:14:01+00:00,142.0,13.44,143.0,15.89,12.49,47.59359,-54.27349
2021-04-27 05:24:01+00:00,143.0,13.96,137.0,17.11,12.49,47.59359,-54.27349
2021-04-27 05:34:01+00:00,143.0,13.66,142.0,16.21,12.49,47.59359,-54.27349
2021-04-27 05:44:01+00:00,144.0,15.26,144.0,17.48,12.49,47.59359,-54.27349
2021-04-27 05:54:01+00:00,149.0,14.91,156.0,20.05,12.49,47.59359,-54.27349
2021-04-27 06:04:01+00:00,144.0,15.11,143.0,17.33,12.49,47.59359,-54.27349
2021-04-27 06:14:01+00:00,145.0,14.9,145.0,16.99,12.41,47.59359,-54.27349
2021-04-27 06:24:01+00:00,146.0,15.48,149.0,18.8,12.41,47.59359,-54.27349
2021-04-27 06:34:01+00:00,146.0,13.19,149.0,16.09,12.41,47.59359,-54.27349
2021-04-27 06:44:01+00:00,146.0,14.83,144.0,17.4,12.41,47.59359,-54.27349
2021-04-27 06:54:01+00:00,149.0,12.91,147.0,17.22,12.41,47.59359,-54.27349
2021-04-27 07:04:01+00:00,155.0,12.78,154.0,13.83,12.41,47.59359,-54.27349
2021-04-27 07:14:00+00:00,156.0,12.02,161.0,14.05,12.41,47.59359,-54.27349
2021-04-27 07:24:00+00:00,162.0,11.34,164.0,12.6,12.41,47.59359,-54.27349
2021-04-27 07:34:00+00:00,160.0,12.28,157.0,13.63,12.41,47.59359,-54.27349
2021-04-27 07:44:00+00:00,160.0,12.12,164.0,15.52,12.41,47.59359,-54.27349
2021-04-27 07:54:00+00:00,160.0,12.6,162.0,14.4,12.41,47.59359,-54.27349
2021-04-27 08:04:00+00:00,159.0,13.22,164.0,15.92,12.41,47.59359,-54.27349
2021-04-27 08:14:01+00:00,161.0,12.24,162.0,14.32,12.41,47.59359,-54.27349
2021-04-27 08:24:01+00:00,161.0,12.46,158.0,14.79,12.41,47.59359,-54.27349
2021-04-27 08:34:01+00:00,162.0,11.21,160.0,13.98,12.41,47.59359,-54.27349
2021-04-27 08:44:01+00:00,164.0,10.42,157.0,11.9,12.41,47.59359,-54.27349
2021-04-27 08:54:01+00:00,165.0,11.08,168.0,12.63,12.41,47.59359,-54.27349
2021-04-27 09:04:01+00:00,172.0,9.2,174.0,11.59,12.41,47.59359,-54.27349
2021-04-27 09:14:00+00:00,171.0,9.13,174.0,10.17,12.33,47.59359,-54.27349
2021-04-27 09:24:00+00:00,170.0,8.31,167.0,11.01,12.33,47.59359,-54.27349
2021-04-27 09:34:00+00:00,178.0,6.73,176.0,7.98,12.33,47.59359,-54.27349
2021-04-27 09:44:00+00:00,179.0,9.17,181.0,10.89,12.33,47.59359,-54.27349
2021-04-27 09:54:00+00:00,179.0,9.21,184.0,10.52,12.33,47.59359,-54.27349
2021-04-27 10:04:00+00:00,177.0,7.53,178.0,8.77,12.33,47.59359,-54.27349
2021-04-27 10:14:01+00:00,185.0,3.35,199.0,4.5,12.33,47.59359,-54.27349
2021-04-27 10:24:01+00:00,186.0,6.73,187.0,7.67,12.33,47.59359,-54.27349
2021-04-27 10:34:01+00:00,196.0,6.24,191.0,7.17,12.33,47.59359,-54.27349
2021-04-27 10:44:01+00:00,195.0,5.31,196.0,6.03,12.33,47.59359,-54.27349
2021-04-27 10:54:01+00:00,205.0,5.22,205.0,5.55,12.33,47.59359,-54.27349
2021-04-27 11:04:01+00:00,208.0,3.92,206.0,5.03,12.33,47.59359,-54.27349
2021-04-27 11:14:00+00:00,212.0,4.3,213.0,4.86,12.41,47.59359,-54.27349
2021-04-27 11:24:00+00:00,207.0,5.13,202.0,5.74,12.41,47.59359,-54.27349
2021-04-27 11:34:00+00:00,206.0,7.32,207.0,8.11,12.41,47.59359,-54.27349
2021-04-27 11:44:00+00:00,201.0,7.44,199.0,8.08,12.41,47.59359,-54.27349
2021-04-27 11:54:00+00:00,214.0,7.97,212.0,8.95,12.41,47.59359,-54.27349
2021-04-27 12:04:00+00:00,211.0,8.2,216.0,9.17,12.41,47.59359,-54.27349
2021-04-27 12:14:01+00:00,203.0,7.1,202.0,8.18,13.05,47.59359,-54.27349
2021-04-27 12:24:01+00:00,199.0,6.04,203.0,6.87,13.05,47.59359,-54.27349
2021-04-27 12:34:01+00:00,212.0,5.0,214.0,5.52,13.05,47.59359,-54.27349
2021-04-27 12:44:01+00:00,229.0,3.46,215.0,4.53,13.05,47.59359,-54.27349
2021-04-27 12:54:01+00:00,214.0,5.27,216.0,5.93,13.05,47.59359,-54.27349
2021-04-27 13:04:01+00:00,208.0,5.18,214.0,5.78,13.05,47.59359,-54.27349
2021-04-27 13:14:01+00:00,206.0,6.39,208.0,7.18,13.6,47.59359,-54.27349
2021-04-27 13:24:01+00:00,209.0,8.29,207.0,9.27,13.6,47.59359,-54.27349
2021-04-27 13:34:01+00:00,203.0,8.01,208.0,8.71,13.6,47.59359,-54.27349
2021-04-27 13:44:01+00:00,199.0,7.7,196.0,8.22,13.6,47.59359,-54.27349
2021-04-27 13:54:01+00:00,203.0,7.81,205.0,8.39,13.6,47.59359,-54.27349
2021-04-27 14:04:01+00:00,198.0,8.08,197.0,8.69,13.6,47.59359,-54.27349
2021-04-27 14:14:01+00:00,208.0,7.53,211.0,8.22,13.76,47.59359,-54.27349
2021-04-27 14:24:01+00:00,214.0,7.04,215.0,7.77,13.76,47.59359,-54.27349
2021-04-27 14:34:01+00:00,204.0,6.65,203.0,7.49,13.76,47.59359,-54.27349
2021-04-27 14:44:01+00:00,200.0,5.96,195.0,6.79,13.76,47.59359,-54.27349
2021-04-27 14:54:01+00:00,199.0,6.61,204.0,7.63,13.76,47.59359,-54.27349
2021-04-27 15:04:01+00:00,206.0,6.02,207.0,6.96,13.76,47.59359,-54.27349
2021-04-27 15:14:01+00:00,209.0,8.08,212.0,8.81,13.84,47.59359,-54.27349
2021-04-27 15:24:01+00:00,199.0,8.21,202.0,8.91,13.84,47.59359,-54.27349
2021-04-27 15:34:01+00:00,197.0,8.45,203.0,9.16,13.84,47.59359,-54.27349
2021-04-27 15:44:01+00:00,198.0,7.56,199.0,8.64,13.84,47.59359,-54.27349
2021-04-27 15:54:01+00:00,208.0,6.29,212.0,7.23,13.84,47.59359,-54.27349
2021-04-27 16:04:01+00:00,208.0,8.18,209.0,9.02,13.84,47.59359,-54.27349
2021-04-27 16:14:01+00:00,217.0,7.45,217.0,8.79,13.84,47.59359,-54.27349
2021-04-27 16:24:01+00:00,215.0,8.53,215.0,9.1,13.84,47.59359,-54.27349
2021-04-27 16:34:01+00:00,212.0,6.92,213.0,7.65,13.84,47.59359,-54.27349
2021-04-27 16:44:01+00:00,211.0,7.59,209.0,8.28,13.84,47.59359,-54.27349
2021-04-27 16:54:01+00:00,212.0,7.68,210.0,8.31,13.84,47.59359,-54.27349
2021-04-27 17:04:01+00:00,204.0,9.02,203.0,10.74,13.84,47.59359,-54.27349
2021-04-27 17:14:01+00:00,201.0,8.11,199.0,9.09,13.92,47.59359,-54.27349
2021-04-27 17:24:01+00:00,210.0,7.51,211.0,8.48,13.92,47.59359,-54.27349
2021-04-27 17:34:01+00:00,207.0,6.75,207.0,8.24,13.92,47.59359,-54.27349
2021-04-27 17:44:01+00:00,204.0,8.05,201.0,8.85,13.92,47.59359,-54.27349
2021-04-27 17:54:01+00:00,201.0,7.18,202.0,7.68,13.92,47.59359,-54.27349
2021-04-27 18:04:01+00:00,204.0,6.53,204.0,7.64,13.92,47.59359,-54.27349
2021-04-27 18:14:01+00:00,211.0,6.07,213.0,6.69,13.76,47.59359,-54.27349
2021-04-27 18:24:01+00:00,201.0,5.53,200.0,6.22,13.76,47.59359,-54.27349
2021-04-27 18:34:01+00:00,200.0,5.81,197.0,7.16,13.76,47.59359,-54.27349
2021-04-27 18:44:01+00:00,199.0,7.15,202.0,7.83,13.76,47.59359,-54.27349
2021-04-27 18:54:01+00:00,202.0,7.85,204.0,8.42,13.76,47.59359,-54.27349
2021-04-27 19:04:01+00:00,200.0,7.84,199.0,8.46,13.76,47.59359,-54.27349
2021-04-27 19:14:01+00:00,209.0,8.22,209.0,9.22,13.76,47.59359,-54.27349
2021-04-27 19:24:01+00:00,222.0,7.8,219.0,9.05,13.76,47.59359,-54.27349
2021-04-27 19:34:01+00:00,214.0,7.59,212.0,8.87,13.76,47.59359,-54.27349
2021-04-27 19:44:01+00:00,218.0,6.57,225.0,7.87,13.76,47.59359,-54.27349
2021-04-27 19:54:01+00:00,209.0,7.01,212.0,7.66,13.76,47.59359,-54.27349
2021-04-27 20:04:01+00:00,211.0,6.29,208.0,7.12,13.76,47.59359,-54.27349
2021-04-27 20:14:01+00:00,217.0,6.67,228.0,8.42,13.76,47.59359,-54.27349
2021-04-27 20:24:01+00:00,217.0,5.88,217.0,6.52,13.76,47.59359,-54.27349
2021-04-27 20:34:01+00:00,209.0,5.01,208.0,5.59,13.76,47.59359,-54.27349
2021-04-27 20:44:01+00:00,225.0,5.28,224.0,6.24,13.76,47.59359,-54.27349
2021-04-27 20:54:01+00:00,218.0,5.47,217.0,6.38,13.76,47.59359,-54.27349
2021-04-27 21:04:01+00:00,214.0,4.96,214.0,5.4,13.76,47.59359,-54.27349
2021-04-27 21:14:01+00:00,215.0,5.81,215.0,6.89,13.68,47.59359,-54.27349
2021-04-27 21:24:01+00:00,204.0,6.71,211.0,7.34,13.68,47.59359,-54.27349
2021-04-27 21:34:01+00:00,204.0,5.44,201.0,5.83,13.68,47.59359,-54.27349
2021-04-27 21:44:01+00:00,214.0,5.59,212.0,6.7,13.68,47.59359,-54.27349
2021-04-27 21:54:01+00:00,210.0,4.74,214.0,5.41,13.68,47.59359,-54.27349
2021-04-27 22:04:01+00:00,223.0,4.27,226.0,4.78,13.68,47.59359,-54.27349
2021-04-27 22:14:01+00:00,236.0,3.85,246.0,4.5,13.37,47.59359,-54.27349
2021-04-27 22:24:01+00:00,227.0,4.42,232.0,5.28,13.37,47.59359,-54.27349
2021-04-27 22:34:01+00:00,217.0,4.64,216.0,5.24,13.37,47.59359,-54.27349
2021-04-27 22:44:01+00:00,215.0,6.47,215.0,7.27,13.37,47.59359,-54.27349
2021-04-27 22:54:01+00:00,206.0,4.78,206.0,5.24,13.37,47.59359,-54.27349
2021-04-27 23:04:01+00:00,210.0,4.72,209.0,5.38,13.37,47.59359,-54.27349
2021-04-27 23:14:01+00:00,211.0,4.38,209.0,4.85,12.81,47.59359,-54.27349
2021-04-27 23:24:01+00:00,213.0,5.41,209.0,6.11,12.81,47.59359,-54.27349
2021-04-27 23:34:01+00:00,208.0,4.64,207.0,5.06,12.81,47.59359,-54.27349
2021-04-27 23:44:01+00:00,200.0,4.8,202.0,5.29,12.81,47.59359,-54.27349
2021-04-27 23:54:01+00:00,200.0,4.84,200.0,5.36,12.81,47.59359,-54.27349
